Lid_Strength_Index
2 2 2 2 2 1 1 2 2 2 2 2 2 2 2 2 3 5 12 8 6 -2 -2 5 4 4 4 5 4 4 11 14 13 12 11 7 9 6 4 6 5 5 5 4 2
2 2 2 2 2 2 2 2 2 2 2 2 2 2 2 2 5 8 3 0 -1 -3 6 8 9 6 8 6 6 8 12 11 9 8 9 8 7 7 7 7 7 6 4 3 3
2 2 2 2 2 2 2 2 2 2 2 3 2 2 2 2 7 9 -2 -2 -3 -1 7 8 8 7 9 6 7 8 11 8 8 7 7 8 8 6 7 9 7 7 6 4 4
2 2 2 2 2 2 2 2 2 2 2 2 2 2 1 5 10 5 -3 -3 -2 3 7 7 7 9 9 9 6 9 7 8 7 6 7 8 6 8 6 7 5 5 4 4 4
3 3 3 3 2 2 2 2 2 3 3 2 2 2 3 8 9 2 -2 -2 0 6 7 8 7 7 10 8 7 9 8 7 7 7 7 6 8 8 7 5 4 4 4 4 4
2 2 2 2 2 2 2 2 3 3 3 2 2 2 5 11 6 0 1 4 5 6 7 7 6 5 7 8 9 7 8 8 7 7 7 8 8 7 6 4 5 5 5 4 4
2 2 2 2 2 2 2 3 3 2 2 2 2 2 5 6 3 1 4 6 6 6 8 7 6 6 6 9 6 7 10 9 8 8 8 7 10 9 6 5 6 6 5 4 4
2 2 2 2 2 2 3 3 3 2 2 1 1 4 7 2 3 4 6 7 6 6 7 6 5 5 7 6 7 9 10 13 9 8 8 8 13 8 6 6 7 6 5 5 4
2 3 2 3 3 3 3 3 3 2 1 1 5 5 7 0 3 3 6 6 6 8 7 5 6 7 7 10 12 11 15 13 11 8 8 9 12 8 6 6 7 6 6 5 4
3 3 3 3 4 4 4 3 1 1 2 2 2 8 6 5 4 4 6 6 6 7 7 8 9 12 10 11 15 15 14 12 13 10 9 11 11 8 7 7 7 7 6 6 5
3 3 3 4 4 5 6 7 7 7 5 7 7 7 6 4 3 5 5 6 8 9 11 10 11 12 12 10 10 11 13 13 11 9 10 11 11 9 8 7 7 7 7 6 5
4 4 4 4 4 5 6 10 9 7 10 5 4 5 5 5 6 6 5 7 9 11 10 11 12 10 10 9 9 10 12 13 10 9 10 11 11 9 8 8 7 7 7 6 6
4 4 4 4 5 6 7 6 6 6 11 9 6 5 5 4 6 7 6 8 10 11 11 12 11 9 9 10 11 11 12 12 12 10 10 11 13 11 9 8 7 6 6 6 6
5 4 5 6 6 6 5 4 4 6 13 11 9 6 5 5 7 5 6 7 10 11 11 11 10 9 11 11 10 14 9 10 11 14 17 11 18 13 11 10 8 7 7 6 6
5 5 6 6 8 7 5 5 5 8 17 9 9 5 6 7 8 8 6 8 10 10 11 11 11 11 11 10 8 10 8 9 11 13 14 14 17 14 11 12 10 8 7 6 5
5 5 6 7 8 6 5 5 8 12 16 10 7 8 9 9 9 8 7 7 7 9 10 10 9 9 10 9 7 7 9 10 12 14 18 15 15 15 14 11 10 8 7 6 6
6 6 6 5 7 6 6 9 14 16 10 10 11 10 10 11 10 9 9 10 11 14 14 11 11 10 9 11 10 10 14 16 19 19 18 14 15 14 10 9 8 8 7 6 5
6 7 7 6 6 5 8 12 17 12 13 10 10 10 10 10 11 10 11 11 11 12 14 14 14 11 9 10 11 13 13 16 17 18 16 13 16 12 8 8 7 7 6 6 6
6 7 7 5 5 6 10 16 15 14 11 10 11 13 13 10 11 11 12 11 11 11 13 15 14 10 10 9 10 13 14 12 14 15 17 15 13 9 9 9 8 7 7 7 6
7 8 6 4 4 8 11 14 13 10 9 10 13 12 14 12 12 12 12 10 11 10 11 13 14 12 10 10 10 10 9 13 14 19 20 17 16 15 11 10 9 9 8 7 6
7 8 5 4 7 10 13 13 10 8 9 11 12 12 12 12 13 13 12 9 9 10 11 13 14 13 11 13 13 12 14 15 14 14 18 19 16 10 10 9 9 8 7 7 6
8 9 4 6 10 13 13 12 9 9 8 9 10 10 11 11 13 13 11 9 8 10 12 12 14 15 13 11 10 12 13 14 15 16 16 16 15 7 8 8 8 8 7 6 6
10 9 4 6 13 12 10 9 8 8 9 10 10 9 9 12 14 12 10 7 7 9 11 11 14 16 15 13 11 13 12 15 14 13 16 16 15 8 8 9 7 8 7 6 6
8 10 8 8 9 10 11 10 10 6 7 8 9 10 11 12 12 12 11 8 8 7 6 8 15 14 14 14 12 12 11 12 14 14 15 14 13 10 10 9 8 7 7 6 6
8 10 10 11 10 10 10 9 10 10 7 7 9 9 11 14 13 14 11 10 8 5 8 12 14 15 13 12 10 10 10 10 13 13 14 12 12 10 10 9 8 7 6 6 6
10 10 9 10 10 10 9 9 10 9 9 9 10 8 9 12 11 11 11 12 10 9 9 10 13 13 13 10 10 11 10 9 10 11 12 11 12 9 8 7 8 7 7 7 6
8 7 8 10 10 11 10 9 9 8 8 7 7 9 9 8 7 8 8 9 10 10 10 10 11 13 14 11 11 14 11 10 10 10 10 13 10 8 8 8 8 7 7 7 6